,,PA_Meas_PMT16A,,PR_Meas_QMR101_102,,RH_Meas_QMH101,,SR_Meas_QMS101,,TA_Meas_QMH101,,GenWind,,GenWind,
time,status,PA,status,PR,status,RH,status,SR,status,TA,status,DirAvg,status,SpdAvg,
2016-10-16, 16:44:04,VALID,918.644,VALID,0.2,INVALID,114.298,VALID,151.814,VALID,20.0944,VALID,218,VALID,1.44336,
2016-10-16, 16:45:04,VALID,918.654,VALID,0,INVALID,114.397,VALID,166.856,VALID,20.0749,VALID,259,VALID,0.942187,
2016-10-16, 16:46:04,VALID,918.589,VALID,0,INVALID,114.374,VALID,162.451,VALID,20.1349,VALID,220,VALID,1.63477,
2016-10-16, 16:47:04,VALID,918.646,VALID,0,INVALID,114.245,VALID,154.823,VALID,20.2114,VALID,22,VALID,0.816406,
2016-10-16, 16:57:04,VALID,918.651,VALID,0,INVALID,114.42,VALID,200.485,VALID,20.2098,VALID,343,VALID,2.04805,
2016-10-16, 17:00:04,VALID,918.774,VALID,0,INVALID,114.344,VALID,153.319,VALID,20.2894,VALID,173,VALID,1.20664,
2016-10-16, 17:05:04,VALID,918.793,VALID,0.2,INVALID,114.382,VALID,170.294,VALID,20.2894,VALID,281,VALID,2.00781,
2016-10-16, 17:06:04,VALID,918.747,VALID,0.2,INVALID,114.382,VALID,191.138,VALID,20.3089,VALID,238,VALID,2.16797,
2016-10-16, 17:07:04,VALID,918.725,VALID,0,INVALID,114.351,VALID,200.7,VALID,20.3479,VALID,30,VALID,2.02539,
2016-10-16, 17:08:04,VALID,918.633,VALID,0,INVALID,114.603,VALID,184.154,VALID,20.1529,VALID,289,VALID,4.68203,
2016-10-16, 17:09:04,VALID,918.473,VALID,0,INVALID,114.778,VALID,188.129,VALID,20.0733,VALID,254,VALID,4.08008,
2016-10-16, 17:37:04,VALID,918.797,VALID,0,INVALID,115.258,VALID,149.558,VALID,20.0733,VALID,227,VALID,1.54766,
2016-10-16, 17:38:04,VALID,918.753,VALID,0,INVALID,115.243,VALID,148.269,VALID,20.1318,VALID,72,VALID,0.977344,
2016-10-16, 17:45:04,VALID,918.765,VALID,0.2,INVALID,115.441,VALID,154.5,VALID,20.0538,VALID,337,VALID,1.03711,
2016-10-16, 17:57:04,VALID,918.841,VALID,0,INVALID,115.685,VALID,153.104,VALID,19.8798,VALID,43,VALID,2.62617,
2016-10-16, 17:59:04,VALID,918.796,VALID,0,INVALID,115.533,VALID,172.013,VALID,19.9563,VALID,2,VALID,1.7375,
2016-10-16, 18:00:04,VALID,918.719,VALID,0,INVALID,115.586,VALID,162.129,VALID,19.9563,VALID,258,VALID,2.00273,
2016-10-16, 18:17:04,VALID,918.496,VALID,0,INVALID,115.655,VALID,186.41,VALID,19.9953,VALID,122,VALID,1.12344,
2016-10-16, 18:18:04,VALID,918.341,VALID,0.2,INVALID,115.731,VALID,204.353,VALID,19.9563,VALID,196,VALID,3.43789,
2016-10-16, 18:19:04,VALID,918.363,VALID,0,INVALID,115.777,VALID,199.196,VALID,19.9758,VALID,34,VALID,1.88672,
2016-10-16, 18:25:04,VALID,918.258,VALID,0,INVALID,115.868,VALID,154.715,VALID,20.0148,VALID,17,VALID,1.06602,
2016-10-16, 18:26:04,VALID,918.358,VALID,0,INVALID,115.853,VALID,190.493,VALID,20.0343,VALID,32,VALID,2.62227,
2016-10-16, 18:27:04,VALID,918.236,VALID,0,INVALID,115.838,VALID,174.699,VALID,20.0343,VALID,297,VALID,2.05312,
2016-10-16, 18:28:04,VALID,918.152,VALID,0,INVALID,115.823,VALID,167.608,VALID,20.0733,VALID,38,VALID,3.34336,
2016-10-16, 18:29:04,VALID,918.273,VALID,0,INVALID,115.67,VALID,262.371,VALID,20.2114,VALID,100,VALID,1.00781,
2016-10-16, 18:30:04,VALID,918.175,VALID,0,INVALID,115.662,VALID,223.263,VALID,20.2098,VALID,39,VALID,2.11914,
2016-10-16, 18:31:04,VALID,918.21,VALID,0,INVALID,115.632,VALID,237.552,VALID,20.2293,VALID,25,VALID,2.0832,
2016-10-16, 18:32:04,VALID,918.264,VALID,0,INVALID,115.678,VALID,279.562,VALID,20.2489,VALID,301,VALID,1.4832,
2016-10-16, 18:33:04,VALID,918.15,VALID,0,INVALID,115.739,VALID,292.455,VALID,20.1708,VALID,320,VALID,2.46563,
2016-10-16, 18:34:04,VALID,918.117,VALID,0,INVALID,115.662,VALID,275.587,VALID,20.2879,VALID,28,VALID,2.45469,
2016-10-16, 18:35:04,VALID,918.151,VALID,0,INVALID,115.54,VALID,252.487,VALID,20.4829,VALID,81,VALID,1.66914,
2016-10-16, 18:36:04,VALID,918.126,VALID,0,INVALID,115.685,VALID,230.461,VALID,20.3464,VALID,259,VALID,2.84258,
2016-10-16, 18:37:04,VALID,918.112,VALID,0,INVALID,115.64,VALID,220.469,VALID,20.4634,VALID,274,VALID,0.218359,
2016-10-16, 18:38:04,VALID,918.142,VALID,0.2,INVALID,115.525,VALID,218.643,VALID,20.5204,VALID,27,VALID,1.4793,
2016-10-16, 18:39:04,VALID,918.059,VALID,0,INVALID,115.571,VALID,206.932,VALID,20.5204,VALID,22,VALID,1.71328,
2016-10-16, 18:40:04,VALID,918.068,VALID,0,INVALID,115.685,VALID,225.949,VALID,20.4439,VALID,177,VALID,0.746875,
2016-10-16, 18:41:04,VALID,918.004,VALID,0,INVALID,115.594,VALID,245.503,VALID,20.5219,VALID,76,VALID,0.575,
2016-10-16, 18:42:04,VALID,918.038,VALID,0,INVALID,115.693,VALID,212.626,VALID,20.4634,VALID,41,VALID,1.47148,
2016-10-16, 18:43:04,VALID,918.038,VALID,0,INVALID,115.64,VALID,260.975,VALID,20.4813,VALID,245,VALID,1.75781,
2016-10-16, 18:44:04,VALID,917.947,VALID,0,INVALID,115.708,VALID,296.108,VALID,20.4228,VALID,233,VALID,2.16523,
2016-10-16, 18:45:04,VALID,917.941,VALID,0,INVALID,115.762,VALID,233.685,VALID,20.4439,VALID,334,VALID,1.75977,
2016-10-16, 18:46:04,VALID,917.98,VALID,0,INVALID,115.449,VALID,237.982,VALID,20.6374,VALID,357,VALID,2.42695,
2016-10-16, 18:47:04,VALID,918.015,VALID,0,INVALID,115.335,VALID,240.453,VALID,20.7349,VALID,281,VALID,0.886719,
2016-10-16, 18:48:04,VALID,917.91,VALID,0,INVALID,115.411,VALID,239.164,VALID,20.6975,VALID,104,VALID,1.80234,
2016-10-16, 18:49:04,VALID,917.986,VALID,0,INVALID,115.579,VALID,249.478,VALID,20.6569,VALID,47,VALID,1.33242,
2016-10-16, 18:50:04,VALID,917.941,VALID,0,INVALID,115.594,VALID,231.213,VALID,20.678,VALID,31,VALID,1.37188,
2016-10-16, 18:51:04,VALID,917.921,VALID,0,INVALID,115.548,VALID,203.279,VALID,20.6959,VALID,14,VALID,1.85859,
2016-10-16, 18:52:04,VALID,917.926,VALID,0,INVALID,115.487,VALID,168.36,VALID,20.7154,VALID,199,VALID,1.32852,
2016-10-16, 18:53:04,VALID,918.028,VALID,0,INVALID,115.563,VALID,201.989,VALID,20.7154,VALID,26,VALID,0.905859,
2016-10-16, 18:54:04,VALID,917.892,VALID,0,INVALID,115.845,VALID,161.484,VALID,20.5789,VALID,312,VALID,2.18438,
2016-10-16, 18:55:04,VALID,917.898,VALID,0,INVALID,115.784,VALID,145.475,VALID,20.6015,VALID,21,VALID,0.754687,
2016-10-16, 18:57:04,VALID,917.889,VALID,0,INVALID,115.937,VALID,135.483,VALID,20.504,VALID,294,VALID,1.03828,
2016-10-16, 18:58:04,VALID,917.796,VALID,0,INVALID,116.006,VALID,162.021,VALID,20.4244,VALID,3,VALID,2.77422,
2016-10-16, 18:59:04,VALID,917.782,VALID,0,INVALID,115.945,VALID,167.178,VALID,20.4228,VALID,346,VALID,1.76641,
2016-10-16, 19:00:04,VALID,917.789,VALID,0,INVALID,115.823,VALID,172.658,VALID,20.4829,VALID,347,VALID,2.43086,
2016-10-16, 19:01:04,VALID,917.796,VALID,0,INVALID,115.807,VALID,188.989,VALID,20.4618,VALID,348,VALID,1.82734,
2016-10-16, 19:02:04,VALID,917.696,VALID,0,INVALID,115.83,VALID,217.783,VALID,20.4439,VALID,79,VALID,2.07578,
2016-10-16, 19:03:04,VALID,917.807,VALID,0,INVALID,115.823,VALID,235.618,VALID,20.4829,VALID,131,VALID,0.285937,
2016-10-16, 19:04:04,VALID,917.653,VALID,0,INVALID,115.777,VALID,220.792,VALID,20.4423,VALID,299,VALID,2.66172,
2016-10-16, 19:05:04,VALID,917.627,VALID,0,INVALID,115.83,VALID,204.568,VALID,20.4634,VALID,270,VALID,2.34414,
2016-10-16, 19:06:04,VALID,917.688,VALID,0,INVALID,115.784,VALID,246.255,VALID,20.5009,VALID,34,VALID,1.05898,
2016-10-16, 19:07:04,VALID,917.735,VALID,0,INVALID,115.731,VALID,214.238,VALID,20.5594,VALID,145,VALID,0.187891,
2016-10-16, 19:08:04,VALID,917.759,VALID,0,INVALID,115.693,VALID,255.602,VALID,20.5999,VALID,53,VALID,1.34883,
2016-10-16, 19:09:04,VALID,917.665,VALID,0,INVALID,115.647,VALID,299.653,VALID,20.6374,VALID,20,VALID,1.7332,
2016-10-16, 19:10:04,VALID,917.732,VALID,0,INVALID,115.67,VALID,252.057,VALID,20.6585,VALID,267,VALID,0.475781,
2016-10-16, 19:11:04,VALID,917.685,VALID,0,INVALID,115.662,VALID,216.064,VALID,20.6569,VALID,98,VALID,1.38008,
2016-10-16, 19:12:04,VALID,917.747,VALID,0,INVALID,115.556,VALID,269.462,VALID,20.7723,VALID,96,VALID,1.2,
2016-10-16, 19:13:04,VALID,917.744,VALID,0,INVALID,115.48,VALID,254.636,VALID,20.8519,VALID,120,VALID,1.13437,
2016-10-16, 19:14:04,VALID,917.698,VALID,0.2,INVALID,115.937,VALID,217.998,VALID,20.6194,VALID,304,VALID,2.11797,
2016-10-16, 19:15:04,VALID,917.693,VALID,0,INVALID,115.906,VALID,178.03,VALID,20.6959,VALID,349,VALID,1.81445,
2016-10-16, 19:16:04,VALID,917.787,VALID,0,INVALID,115.845,VALID,178.46,VALID,20.7154,VALID,256,VALID,0.837109,
2016-10-16, 19:17:04,VALID,917.766,VALID,0,INVALID,116.036,VALID,205.535,VALID,20.6179,VALID,264,VALID,1.78516,
2016-10-16, 19:18:04,VALID,917.723,VALID,0,INVALID,116.127,VALID,169.864,VALID,20.5984,VALID,345,VALID,1.32656,
2016-10-16, 19:19:04,VALID,917.661,VALID,0,INVALID,116.158,VALID,171.476,VALID,20.6179,VALID,10,VALID,2.15313,
2016-10-16, 19:20:04,VALID,917.758,VALID,0,INVALID,116.196,VALID,200.163,VALID,20.5984,VALID,142,VALID,1.38789,
2016-10-16, 19:21:04,VALID,917.601,VALID,0,INVALID,116.204,VALID,168.575,VALID,20.5789,VALID,229,VALID,1.29375,
2016-10-16, 19:22:04,VALID,917.616,VALID,0,INVALID,116.112,VALID,149.988,VALID,20.6179,VALID,224,VALID,1.1875,
2016-10-16, 19:25:04,VALID,917.648,VALID,0,INVALID,116.402,VALID,136.88,VALID,20.5204,VALID,228,VALID,1.08789,
2016-10-16, 19:47:04,VALID,917.299,VALID,0,INVALID,116.402,VALID,139.888,VALID,20.3659,VALID,30,VALID,2.10273,
2016-10-16, 19:48:04,VALID,917.25,VALID,0,INVALID,116.349,VALID,164.6,VALID,20.3659,VALID,239,VALID,1.27227,
2016-10-16, 19:49:04,VALID,917.192,VALID,0,INVALID,116.303,VALID,184.476,VALID,20.4244,VALID,25,VALID,4.21914,
2016-10-16, 19:50:04,VALID,917.298,VALID,0,INVALID,116.326,VALID,188.129,VALID,20.4049,VALID,26,VALID,2.22422,
2016-10-16, 19:51:04,VALID,917.25,VALID,0.2,INVALID,116.387,VALID,229.924,VALID,20.4049,VALID,303,VALID,1.4418,
2016-10-16, 19:52:04,VALID,917.268,VALID,0,INVALID,116.356,VALID,236.8,VALID,20.4244,VALID,321,VALID,0.337891,
2016-10-16, 19:53:04,VALID,917.192,VALID,0,INVALID,116.166,VALID,199.088,VALID,20.5219,VALID,234,VALID,1.53516,
2016-10-16, 19:54:04,VALID,917.176,VALID,0,INVALID,116.158,VALID,204.568,VALID,20.5804,VALID,25,VALID,2.33945,
2016-10-16, 19:55:04,VALID,917.249,VALID,0,INVALID,116.082,VALID,286.546,VALID,20.6194,VALID,243,VALID,1.29258,
2016-10-16, 19:56:04,VALID,917.047,VALID,0,INVALID,116.135,VALID,215.527,VALID,20.5984,VALID,39,VALID,3.20313,
2016-10-16, 19:57:04,VALID,917.135,VALID,0,INVALID,116.257,VALID,202.419,VALID,20.5609,VALID,211,VALID,1.73477,
2016-10-16, 19:58:04,VALID,917.172,VALID,0,INVALID,116.272,VALID,150.095,VALID,20.621,VALID,21,VALID,2.88789,
2016-10-16, 19:59:04,VALID,917.238,VALID,0,INVALID,116.326,VALID,196.94,VALID,20.5804,VALID,17,VALID,2.61641,
2016-10-16, 20:00:04,VALID,917.191,VALID,0,INVALID,116.379,VALID,161.269,VALID,20.5414,VALID,17,VALID,2.3457,
2016-10-16, 20:01:04,VALID,917.229,VALID,0,INVALID,116.326,VALID,201.237,VALID,20.5414,VALID,353,VALID,2.09648,
2016-10-16, 20:02:04,VALID,917.157,VALID,0,INVALID,116.394,VALID,207.899,VALID,20.5219,VALID,28,VALID,2.24219,
2016-10-16, 20:03:04,VALID,917.162,VALID,0,INVALID,116.318,VALID,261.834,VALID,20.5414,VALID,354,VALID,1.51719,
2016-10-16, 20:04:04,VALID,917.104,VALID,0,INVALID,116.127,VALID,303.629,VALID,20.6585,VALID,53,VALID,1.60156,
2016-10-16, 20:05:04,VALID,917.095,VALID,0,INVALID,116.044,VALID,276.339,VALID,20.717,VALID,209,VALID,1.55898,
2016-10-16, 20:06:04,VALID,917.064,VALID,0,INVALID,116.12,VALID,239.057,VALID,20.678,VALID,252,VALID,1.7875,
2016-10-16, 20:07:04,VALID,917.05,VALID,0,INVALID,116.295,VALID,242.924,VALID,20.6194,VALID,35,VALID,2.1457,
2016-10-16, 20:08:04,VALID,917.088,VALID,0,INVALID,116.112,VALID,282.355,VALID,20.7755,VALID,177,VALID,0.594531,
2016-10-16, 20:09:04,VALID,917.02,VALID,0,INVALID,116.135,VALID,304.273,VALID,20.717,VALID,224,VALID,0.509375,
2016-10-16, 20:10:04,VALID,917.015,VALID,0,INVALID,116.089,VALID,272.041,VALID,20.7544,VALID,10,VALID,1.61875,
2016-10-16, 20:11:04,VALID,916.993,VALID,0,INVALID,115.876,VALID,266.884,VALID,20.93,VALID,39,VALID,1.33984,
2016-10-16, 20:12:04,VALID,916.998,VALID,0,INVALID,115.739,VALID,335.861,VALID,21.0486,VALID,221,VALID,0.912891,
2016-10-16, 20:13:04,VALID,916.911,VALID,0,INVALID,115.914,VALID,275.372,VALID,20.9706,VALID,28,VALID,1.79414,
2016-10-16, 20:14:04,VALID,916.912,VALID,0,INVALID,115.876,VALID,279.562,VALID,21.008,VALID,62,VALID,1.07422,
2016-10-16, 20:15:04,VALID,916.942,VALID,0,INVALID,115.967,VALID,280.529,VALID,20.9901,VALID,14,VALID,1.7707,
2016-10-16, 20:16:04,VALID,916.888,VALID,0,INVALID,116.127,VALID,261.942,VALID,20.9105,VALID,340,VALID,1.08281,
2016-10-16, 20:17:04,VALID,916.881,VALID,0,INVALID,115.929,VALID,250.445,VALID,21.0665,VALID,23,VALID,1.38164,
2016-10-16, 20:18:04,VALID,916.884,VALID,0,INVALID,115.967,VALID,256.569,VALID,21.0275,VALID,349,VALID,0.764063,
2016-10-16, 20:19:04,VALID,916.878,VALID,0,INVALID,116.021,VALID,235.296,VALID,21.0681,VALID,359,VALID,1.47617,
2016-10-16, 20:20:04,VALID,916.871,VALID,0,INVALID,116.105,VALID,291.38,VALID,21.047,VALID,79,VALID,1.26719,
2016-10-16, 20:21:04,VALID,916.823,VALID,0,INVALID,116.105,VALID,314.803,VALID,21.0665,VALID,201,VALID,1.68633,
2016-10-16, 20:22:04,VALID,916.833,VALID,0,INVALID,116.227,VALID,303.306,VALID,21.0665,VALID,30,VALID,1.61758,
2016-10-16, 20:23:04,VALID,916.843,VALID,0,INVALID,116.051,VALID,332.53,VALID,21.1836,VALID,78,VALID,0.606641,
2016-10-16, 20:24:04,VALID,916.735,VALID,0,INVALID,116.249,VALID,304.811,VALID,21.1234,VALID,36,VALID,2.20273,
2016-10-16, 20:25:04,VALID,916.778,VALID,0,INVALID,116.341,VALID,336.935,VALID,21.164,VALID,211,VALID,1.22266,
2016-10-16, 20:26:04,VALID,916.732,VALID,0,INVALID,116.745,VALID,321.894,VALID,21.0665,VALID,73,VALID,0.763672,
2016-10-16, 20:27:04,VALID,916.669,VALID,0,INVALID,116.631,VALID,295.248,VALID,21.164,VALID,8,VALID,2.18789,
2016-10-16, 20:28:04,VALID,916.701,VALID,0,INVALID,116.532,VALID,331.778,VALID,21.2616,VALID,122,VALID,1.77148,
2016-10-16, 20:29:04,VALID,916.665,VALID,0,INVALID,116.676,VALID,304.166,VALID,21.2226,VALID,80,VALID,0.291406,
2016-10-16, 20:30:04,VALID,916.606,VALID,0,INVALID,116.844,VALID,325.332,VALID,21.2421,VALID,178,VALID,0.457031,
2016-10-16, 20:31:04,VALID,916.553,VALID,0,INVALID,116.661,VALID,316.092,VALID,21.3591,VALID,53,VALID,1.29648,
2016-10-16, 20:32:04,VALID,916.541,VALID,0,INVALID,116.958,VALID,310.505,VALID,21.3185,VALID,40,VALID,2.09297,
2016-10-16, 20:33:04,VALID,916.539,VALID,0,INVALID,116.867,VALID,276.983,VALID,21.4177,VALID,33,VALID,1.40781,
2016-10-16, 20:34:04,VALID,916.554,VALID,0,INVALID,117.241,VALID,292.67,VALID,21.3185,VALID,19,VALID,2.42031,
2016-10-16, 20:35:04,VALID,916.493,VALID,0,INVALID,117.5,VALID,300.191,VALID,21.3185,VALID,22,VALID,1.44883,
2016-10-16, 20:36:04,VALID,916.508,VALID,0,INVALID,117.645,VALID,292.025,VALID,21.3185,VALID,3,VALID,0.954297,
2016-10-16, 20:37:04,VALID,916.461,VALID,0,INVALID,117.66,VALID,318.67,VALID,21.338,VALID,20,VALID,1.70938,
2016-10-16, 20:38:04,VALID,916.411,VALID,0,INVALID,117.561,VALID,311.687,VALID,21.455,VALID,40,VALID,0.860547,
2016-10-16, 20:39:04,VALID,916.345,VALID,0,INVALID,117.82,VALID,297.934,VALID,21.455,VALID,357,VALID,1.78359,
2016-10-16, 20:40:04,VALID,916.334,VALID,0,INVALID,117.911,VALID,306.852,VALID,21.4941,VALID,134,VALID,0.0984375,
2016-10-16, 20:41:04,VALID,916.304,VALID,0,INVALID,118.3,VALID,273.438,VALID,21.416,VALID,314,VALID,0.354297,
2016-10-16, 20:42:04,VALID,916.303,VALID,0,INVALID,118.422,VALID,220.792,VALID,21.4567,VALID,353,VALID,0.299609,
2016-10-16, 20:43:04,VALID,916.292,VALID,0,INVALID,118.369,VALID,185.981,VALID,21.5119,VALID,354,VALID,0,
2016-10-16, 20:44:04,VALID,916.308,VALID,0,INVALID,118.803,VALID,222.94,VALID,21.455,VALID,41,VALID,1.03828,
2016-10-16, 20:45:04,VALID,916.309,VALID,0,INVALID,118.803,VALID,280.529,VALID,21.4941,VALID,39,VALID,0,
2016-10-16, 20:46:04,VALID,916.275,VALID,0,INVALID,119.009,VALID,299.868,VALID,21.4924,VALID,44,VALID,0.7875,
2016-10-16, 20:47:04,VALID,916.245,VALID,0,INVALID,119.314,VALID,266.454,VALID,21.4567,VALID,175,VALID,0,
2016-10-16, 20:48:04,VALID,916.266,VALID,0,INVALID,119.428,VALID,289.017,VALID,21.5152,VALID,14,VALID,1.11563,
2016-10-16, 20:49:04,VALID,916.158,VALID,0,INVALID,119.977,VALID,291.81,VALID,21.3981,VALID,229,VALID,0.570703,
2016-10-16, 20:50:04,VALID,916.215,VALID,0,INVALID,120.153,VALID,303.844,VALID,21.3981,VALID,90,VALID,0.0921875,
2016-10-16, 20:51:04,VALID,916.168,VALID,0,INVALID,119.993,VALID,279.992,VALID,21.5152,VALID,26,VALID,1.52695,
2016-10-16, 20:52:04,VALID,916.136,VALID,0,INVALID,120,VALID,265.272,VALID,21.5932,VALID,19,VALID,1.36172,
2016-10-16, 20:53:04,VALID,916.109,VALID,0,INVALID,120.122,VALID,279.562,VALID,21.6323,VALID,35,VALID,0,
2016-10-16, 20:54:04,VALID,916.071,VALID,0,INVALID,120.404,VALID,213.378,VALID,21.5916,VALID,322,VALID,1.25742,
2016-10-16, 20:55:04,VALID,916.047,VALID,0,INVALID,120.846,VALID,193.287,VALID,21.4746,VALID,32,VALID,1.74453,
2016-10-16, 20:56:04,VALID,916.086,VALID,0,INVALID,120.747,VALID,190.923,VALID,21.4941,VALID,205,VALID,0.510547,
2016-10-16, 20:57:04,VALID,916.077,VALID,0,INVALID,120.778,VALID,176.096,VALID,21.5136,VALID,342,VALID,1.2957,
2016-10-16, 20:58:04,VALID,916.063,VALID,0,INVALID,120.801,VALID,200.163,VALID,21.5152,VALID,341,VALID,0.576563,
2016-10-16, 20:59:04,VALID,916.01,VALID,0,INVALID,120.831,VALID,202.419,VALID,21.5136,VALID,19,VALID,3.3957,
2016-10-16, 21:00:04,VALID,916.02,VALID,0,INVALID,120.999,VALID,225.841,VALID,21.3981,VALID,353,VALID,1.73086,
2016-10-16, 21:01:04,VALID,915.961,VALID,0,INVALID,121.083,VALID,182.757,VALID,21.2795,VALID,25,VALID,2.57227,
2016-10-16, 21:02:04,VALID,915.972,VALID,0,INVALID,120.953,VALID,160.947,VALID,21.3201,VALID,18,VALID,1.99844,
2016-10-16, 21:03:04,VALID,915.935,VALID,0,INVALID,121.067,VALID,134.194,VALID,21.1819,VALID,11,VALID,1.11406,
2016-10-16, 21:04:04,VALID,915.961,VALID,0,INVALID,121.014,VALID,122.268,VALID,21.1445,VALID,27,VALID,1.44766,
2016-10-16, 21:05:04,VALID,915.983,VALID,0,INVALID,120.953,VALID,162.666,VALID,21.086,VALID,65,VALID,1.5293,
2016-10-16, 21:06:04,VALID,915.984,VALID,0,INVALID,120.808,VALID,178.46,VALID,21.0649,VALID,30,VALID,1.92422,
2016-10-16, 21:07:04,VALID,915.926,VALID,0.2,INVALID,120.679,VALID,162.773,VALID,21.0844,VALID,29,VALID,1.04609,
2016-10-16, 21:08:04,VALID,915.92,VALID,0,INVALID,120.488,VALID,162.129,VALID,21.125,VALID,1,VALID,0,
2016-10-16, 21:09:04,VALID,915.934,VALID,0,INVALID,120.351,VALID,184.262,VALID,21.164,VALID,314,VALID,0.958203,
2016-10-16, 21:10:04,VALID,915.9,VALID,0,INVALID,120.488,VALID,175.559,VALID,21.1055,VALID,16,VALID,1.96016,
2016-10-16, 21:11:04,VALID,915.886,VALID,0,INVALID,120.313,VALID,211.659,VALID,21.125,VALID,8,VALID,0,
2016-10-16, 21:12:04,VALID,915.875,VALID,0,INVALID,120.153,VALID,204.031,VALID,21.164,VALID,336,VALID,0.807422,
2016-10-16, 21:13:04,VALID,915.878,VALID,0,INVALID,120.29,VALID,174.592,VALID,21.1445,VALID,41,VALID,1.21719,
2016-10-16, 21:14:04,VALID,915.884,VALID,0,INVALID,120.168,VALID,185.766,VALID,21.1836,VALID,31,VALID,2.28477,
2016-10-16, 21:15:04,VALID,915.876,VALID,0,INVALID,120.336,VALID,187.162,VALID,21.1055,VALID,20,VALID,1.55977,
2016-10-16, 21:16:04,VALID,915.875,VALID,0,INVALID,120.229,VALID,176.741,VALID,21.1445,VALID,336,VALID,0.685156,
2016-10-16, 21:17:04,VALID,915.881,VALID,0,INVALID,120.32,VALID,182.113,VALID,21.0665,VALID,26,VALID,1.63789,
2016-10-16, 21:18:04,VALID,915.846,VALID,0,INVALID,120.191,VALID,174.592,VALID,21.125,VALID,79,VALID,1.03477,
2016-10-16, 21:19:04,VALID,915.841,VALID,0.2,INVALID,120.054,VALID,160.41,VALID,21.164,VALID,334,VALID,0.350391,
2016-10-16, 21:20:04,VALID,915.819,VALID,0,INVALID,120.107,VALID,161.484,VALID,21.1836,VALID,33,VALID,1.49922,
2016-10-16, 21:21:04,VALID,915.822,VALID,0.2,INVALID,120.16,VALID,165.997,VALID,21.1445,VALID,284,VALID,1.25664,
2016-10-16, 21:22:04,VALID,915.82,VALID,0,INVALID,120.16,VALID,155.79,VALID,21.125,VALID,25,VALID,1.63945,
2016-10-16, 21:23:04,VALID,915.836,VALID,0.2,INVALID,120.183,VALID,145.368,VALID,21.1266,VALID,21,VALID,0.969922,
2016-10-16, 21:24:04,VALID,915.816,VALID,0,INVALID,120,VALID,152.029,VALID,21.164,VALID,12,VALID,1.50586,
2016-10-16, 21:25:04,VALID,915.793,VALID,0,INVALID,120.092,VALID,184.906,VALID,21.125,VALID,341,VALID,0.480078,
2016-10-16, 21:26:04,VALID,915.757,VALID,0,INVALID,120.099,VALID,195.006,VALID,21.125,VALID,25,VALID,0.875,
2016-10-16, 21:27:04,VALID,915.782,VALID,0.2,INVALID,120.076,VALID,212.304,VALID,21.1039,VALID,264,VALID,0.670703,
2016-10-16, 21:28:04,VALID,915.725,VALID,0,INVALID,120,VALID,320.819,VALID,21.1234,VALID,306,VALID,0.854297,
2016-10-16, 21:29:04,VALID,915.666,VALID,0,INVALID,119.939,VALID,396.78,VALID,21.1624,VALID,33,VALID,1.85703,
2016-10-16, 21:30:04,VALID,915.648,VALID,0,INVALID,119.756,VALID,405.161,VALID,21.2405,VALID,18,VALID,2.05391,
2016-10-16, 21:31:04,VALID,915.677,VALID,0,INVALID,119.985,VALID,333.712,VALID,21.2015,VALID,13,VALID,3.02148,
2016-10-16, 21:32:04,VALID,915.653,VALID,0,INVALID,120.069,VALID,357.564,VALID,21.2015,VALID,3,VALID,1.37109,
2016-10-16, 21:33:04,VALID,915.612,VALID,0,INVALID,120.252,VALID,351.44,VALID,21.1429,VALID,297,VALID,1.29844,
2016-10-16, 21:34:04,VALID,915.64,VALID,0.2,INVALID,119.817,VALID,316.629,VALID,21.3201,VALID,15,VALID,1.72461,
2016-10-16, 21:35:04,VALID,915.665,VALID,0,INVALID,120.015,VALID,310.72,VALID,21.2795,VALID,262,VALID,1.14063,
2016-10-16, 21:36:04,VALID,915.597,VALID,0,INVALID,120.015,VALID,322.323,VALID,21.3185,VALID,22,VALID,2.74414,
2016-10-16, 21:37:04,VALID,915.647,VALID,0,INVALID,119.916,VALID,326.943,VALID,21.377,VALID,254,VALID,0,
2016-10-16, 21:38:04,VALID,915.631,VALID,0,INVALID,120.168,VALID,294.711,VALID,21.3575,VALID,1,VALID,0.719922,
2016-10-16, 21:39:04,VALID,915.621,VALID,0,INVALID,119.68,VALID,340.803,VALID,21.5331,VALID,357,VALID,0.448828,
2016-10-16, 21:40:04,VALID,915.602,VALID,0,INVALID,119.802,VALID,296.323,VALID,21.5526,VALID,296,VALID,0.550391,
2016-10-16, 21:41:04,VALID,915.613,VALID,0,INVALID,120.099,VALID,283.537,VALID,21.5331,VALID,4,VALID,0.99375,
2016-10-16, 21:42:04,VALID,915.594,VALID,0,INVALID,120.267,VALID,325.439,VALID,21.5136,VALID,28,VALID,1.48203,
2016-10-16, 21:43:04,VALID,915.512,VALID,0,INVALID,119.901,VALID,343.382,VALID,21.6501,VALID,37,VALID,1.66719,
2016-10-16, 21:44:04,VALID,915.524,VALID,0,INVALID,119.863,VALID,264.628,VALID,21.7282,VALID,6,VALID,1.42109,
2016-10-16, 21:45:04,VALID,915.544,VALID,0,INVALID,120.275,VALID,232.932,VALID,21.6501,VALID,337,VALID,0.935156,
2016-10-16, 21:46:04,VALID,915.531,VALID,0,INVALID,120.275,VALID,220.362,VALID,21.6501,VALID,22,VALID,2.18867,
2016-10-16, 21:47:04,VALID,915.535,VALID,0,INVALID,120.061,VALID,214.238,VALID,21.7087,VALID,168,VALID,0.414844,
2016-10-16, 21:48:04,VALID,915.502,VALID,0,INVALID,120.519,VALID,225.519,VALID,21.6128,VALID,8,VALID,1.30078,
2016-10-16, 21:49:04,VALID,915.451,VALID,0,INVALID,120.557,VALID,233.899,VALID,21.6128,VALID,13,VALID,1.28594,
2016-10-16, 21:50:04,VALID,915.453,VALID,0,INVALID,120.564,VALID,269.892,VALID,21.5932,VALID,331,VALID,0.664453,
2016-10-16, 21:51:04,VALID,915.435,VALID,0,INVALID,120.496,VALID,252.594,VALID,21.5932,VALID,60,VALID,0.393359,
2016-10-16, 21:52:04,VALID,915.48,VALID,0,INVALID,120.465,VALID,229.494,VALID,21.6111,VALID,48,VALID,0.548828,
2016-10-16, 21:53:04,VALID,915.448,VALID,0,INVALID,120.541,VALID,218.213,VALID,21.5737,VALID,70,VALID,0.204297,
2016-10-16, 21:54:04,VALID,915.431,VALID,0,INVALID,120.74,VALID,208.006,VALID,21.5136,VALID,22,VALID,0.655469,
2016-10-16, 21:55:04,VALID,915.389,VALID,0,INVALID,120.442,VALID,197.477,VALID,21.6713,VALID,20,VALID,1.9793,
2016-10-16, 21:56:04,VALID,915.383,VALID,0,INVALID,120.496,VALID,202.097,VALID,21.6696,VALID,22,VALID,1.33438,
2016-10-16, 21:57:04,VALID,915.323,VALID,0,INVALID,120.839,VALID,202.527,VALID,21.5136,VALID,15,VALID,1.87188,
2016-10-16, 21:58:04,VALID,915.3,VALID,0,INVALID,121.045,VALID,191.782,VALID,21.4746,VALID,6,VALID,1.33125,
2016-10-16, 21:59:04,VALID,915.289,VALID,0,INVALID,120.968,VALID,185.981,VALID,21.4762,VALID,359,VALID,1.64297,
2016-10-16, 22:00:04,VALID,915.303,VALID,0,INVALID,120.984,VALID,178.675,VALID,21.4355,VALID,347,VALID,0.837109,